User: anonymous   Login
Location: Unspecified
(0.0000°N, 0.0000°E)
Time: 00:41:45
(UTC+00:00)
Language:

BEESAT 4 - Orbit

View from above orbital plane
View from above orbital plane
View from above satellite
View from above satellite

Ground track
Ground track

The orbit data is extracted from the following two-line orbital elements,

1 41619U 16040W   17206.15606124 +.00001133 +00000-0 +54404-4 0  9992
2 41619 097.4599 268.1742 0010530 299.4547 060.5638 15.20860455048360
Epoch (UTC): 25 July 2017 03:44:43
Eccentricity: 0.0010530
inclination: 97.4599°
perigee height: 496 km
apogee height: 510 km
right ascension of ascending node: 268.1742°
argument of perigee: 299.4547°
revolutions per day: 15.20860455
mean anomaly at epoch: 60.5638°
orbit number at epoch: 4836

The dashed part of the orbit path shows where the satellite is in the earth's shadow,  

DLR